User: anonymous
Location: Caltech
(34.1382°N, 118.1253°W)
Time: 21:37:53
(UTC-07:00)
Language:

CZ-4B DEB - Orbit

View from above orbital plane
View from above orbital plane
View from above satellite
View from above satellite

Ground track
Ground track

The orbit data is extracted from the following two-line orbital elements,

1 27433U 02024D   14209.84280911  .00000073  00000-0  64236-4 0  8811
2 27433 098.8294 174.9162 0015379 146.9896 268.1662 14.11580919628397
Epoch (UTC): 28 July 2014 20:13:38
Eccentricity: 0.0015379
inclination: 98.8294°
perigee height: 843 km
apogee height: 865 km
right ascension of ascending node: 174.9162°
argument of perigee: 146.9896°
revolutions per day: 14.11580919
mean anomaly at epoch: 268.1662°
orbit number at epoch: 62839

The dashed part of the orbit path shows where the satellite is in the earth's shadow,  

DLR